TimeEDT,TemperatureF,Dew PointF,Humidity,Sea Level PressureIn,VisibilityMPH,Wind Direction,Wind SpeedMPH,Gust SpeedMPH,PrecipitationIn,Events,Conditions,WindDirDegrees,DateUTC
12:15 AM,67.6,67.8,100,29.98,7.0,Calm,Calm,-,N/A,,Mostly Cloudy,0,2013-10-06 04:15:00
12:34 AM,67.3,67.5,100,29.97,7.0,Calm,Calm,-,N/A,,Scattered Clouds,0,2013-10-06 04:34:00
12:54 AM,67.1,67.3,100,29.96,7.0,Calm,Calm,-,N/A,,Clear,0,2013-10-06 04:54:00
1:15 AM,-9999,-9999,N/A,29.95,5.0,Calm,Calm,-,N/A,,Clear,0,2013-10-06 05:15:00
1:34 AM,67.1,67.1,100,29.95,5.0,Calm,Calm,-,N/A,,Scattered Clouds,0,2013-10-06 05:34:00
1:54 AM,67.3,67.5,100,29.96,5.0,Calm,Calm,-,N/A,,Mostly Cloudy,0,2013-10-06 05:54:00
2:15 AM,67.5,67.6,100,29.95,5.0,Calm,Calm,-,N/A,,Overcast,0,2013-10-06 06:15:00
2:35 AM,67.3,67.5,100,29.95,5.0,Calm,Calm,-,N/A,,Mostly Cloudy,0,2013-10-06 06:35:00
2:54 AM,66.7,66.9,100,29.95,4.0,Calm,Calm,-,N/A,,Mostly Cloudy,0,2013-10-06 06:54:00
3:15 AM,67.1,67.1,100,29.94,4.0,Calm,Calm,-,N/A,,Scattered Clouds,0,2013-10-06 07:15:00
3:34 AM,67.1,67.3,100,29.93,5.0,Calm,Calm,-,N/A,,Mostly Cloudy,0,2013-10-06 07:34:00
3:54 AM,67.3,67.5,100,29.93,5.0,Calm,Calm,-,N/A,,Overcast,0,2013-10-06 07:54:00
4:15 AM,67.3,67.5,100,29.93,5.0,Calm,Calm,-,N/A,,Mostly Cloudy,0,2013-10-06 08:15:00
4:34 AM,67.5,67.6,100,29.93,5.0,Calm,Calm,-,N/A,,Mostly Cloudy,0,2013-10-06 08:34:00
4:54 AM,67.1,67.3,100,29.92,4.0,Calm,Calm,-,N/A,,Mostly Cloudy,0,2013-10-06 08:54:00
5:15 AM,67.1,67.3,100,29.93,4.0,Calm,Calm,-,N/A,,Overcast,0,2013-10-06 09:15:00
5:34 AM,67.3,67.5,100,29.92,4.0,Calm,Calm,-,N/A,,Overcast,0,2013-10-06 09:34:00
5:55 AM,67.3,67.5,100,29.93,4.0,Calm,Calm,-,N/A,,Overcast,0,2013-10-06 09:55:00
6:15 AM,67.3,67.5,100,29.93,4.0,Calm,Calm,-,N/A,,Overcast,0,2013-10-06 10:15:00
6:34 AM,67.3,67.5,100,29.92,4.0,Calm,Calm,-,N/A,,Overcast,0,2013-10-06 10:34:00
6:55 AM,67.1,67.3,100,29.92,4.0,Calm,Calm,-,N/A,,Mostly Cloudy,0,2013-10-06 10:55:00
7:15 AM,67.1,67.1,100,29.92,4.0,Calm,Calm,-,N/A,,Mostly Cloudy,0,2013-10-06 11:15:00
7:34 AM,67.1,67.1,100,29.92,4.0,Calm,Calm,-,N/A,,Overcast,0,2013-10-06 11:34:00
7:55 AM,66.6,66.9,100,29.91,2.5,ESE,4.6,-,N/A,,Overcast,110,2013-10-06 11:55:00
8:15 AM,-9999,-9999,N/A,29.91,2.5,ESE,4.6,-,N/A,,Overcast,120,2013-10-06 12:15:00
8:34 AM,67.1,67.1,100,29.91,4.0,SE,3.5,-,N/A,,Mostly Cloudy,130,2013-10-06 12:34:00
8:55 AM,67.6,68.0,100,29.92,5.0,SE,5.8,-,N/A,,Scattered Clouds,130,2013-10-06 12:55:00
9:15 AM,68.5,68.7,100,29.91,5.0,Calm,Calm,-,N/A,,Scattered Clouds,0,2013-10-06 13:15:00
9:34 AM,70.0,70.0,100,29.91,5.0,SSE,4.6,-,N/A,,Mostly Cloudy,160,2013-10-06 13:34:00
9:54 AM,70.9,70.2,98,29.90,7.0,SE,4.6,-,N/A,,Mostly Cloudy,140,2013-10-06 13:54:00
10:15 AM,71.8,68.2,88,29.89,7.0,SSE,6.9,-,N/A,,Scattered Clouds,160,2013-10-06 14:15:00
10:34 AM,72.5,68.0,86,29.89,7.0,South,8.1,-,N/A,,Scattered Clouds,170,2013-10-06 14:34:00
10:55 AM,72.5,67.5,84,29.89,7.0,South,8.1,-,N/A,,Scattered Clouds,190,2013-10-06 14:55:00
11:15 AM,73.6,65.8,77,29.88,7.0,South,8.1,-,N/A,,Mostly Cloudy,190,2013-10-06 15:15:00
11:34 AM,74.3,65.5,74,29.88,7.0,SSW,10.4,19.6,N/A,,Scattered Clouds,200,2013-10-06 15:34:00
11:54 AM,74.3,64.9,72,29.88,7.0,SSW,9.2,-,N/A,,Mostly Cloudy,210,2013-10-06 15:54:00
12:15 PM,74.1,64.8,72,29.88,7.0,SSW,6.9,17.3,N/A,,Overcast,200,2013-10-06 16:15:00
12:34 PM,74.5,64.8,72,29.88,10.0,South,10.4,18.4,N/A,,Overcast,180,2013-10-06 16:34:00
12:54 PM,75.4,64.6,69,29.87,7.0,SSW,9.2,17.3,N/A,,Mostly Cloudy,200,2013-10-06 16:54:00
1:15 PM,75.6,64.4,68,29.87,7.0,SSW,9.2,-,N/A,,Overcast,210,2013-10-06 17:15:00
1:34 PM,75.6,63.5,66,29.86,7.0,SW,10.4,19.6,N/A,,Mostly Cloudy,230,2013-10-06 17:34:00
1:55 PM,75.6,63.5,66,29.85,7.0,SSW,9.2,17.3,N/A,,Scattered Clouds,210,2013-10-06 17:55:00
2:15 PM,76.1,63.3,64,29.84,7.0,SW,11.5,18.4,N/A,,Scattered Clouds,220,2013-10-06 18:15:00
2:34 PM,76.6,63.5,64,29.83,7.0,SSW,4.6,18.4,N/A,,Scattered Clouds,200,2013-10-06 18:34:00
2:55 PM,77.0,63.0,62,29.82,7.0,SSW,5.8,17.3,N/A,,Mostly Cloudy,200,2013-10-06 18:55:00
3:15 PM,76.1,63.0,64,29.81,10.0,SSW,5.8,-,N/A,,Mostly Cloudy,210,2013-10-06 19:15:00
3:34 PM,77.7,63.3,61,29.80,7.0,South,6.9,-,N/A,,Scattered Clouds,190,2013-10-06 19:34:00
3:54 PM,77.9,63.0,60,29.79,7.0,SSW,6.9,-,N/A,,Clear,200,2013-10-06 19:54:00
4:15 PM,78.6,62.6,58,29.78,7.0,SSE,6.9,17.3,N/A,,Clear,160,2013-10-06 20:15:00
4:35 PM,77.5,62.1,59,29.77,7.0,SSE,5.8,-,N/A,,Clear,160,2013-10-06 20:35:00
4:54 PM,77.0,61.9,59,29.76,7.0,SSE,4.6,-,N/A,,Clear,150,2013-10-06 20:54:00
5:15 PM,76.1,61.7,61,29.76,7.0,Calm,Calm,-,N/A,,Clear,0,2013-10-06 21:15:00
5:34 PM,76.1,61.3,60,29.76,7.0,SSE,3.5,-,N/A,,Clear,160,2013-10-06 21:34:00
5:55 PM,75.2,61.5,62,29.76,7.0,SSE,3.5,-,N/A,,Clear,160,2013-10-06 21:55:00
6:15 PM,74.3,61.9,65,29.75,10.0,Calm,Calm,-,N/A,,Clear,0,2013-10-06 22:15:00
6:34 PM,74.1,61.3,64,29.75,7.0,SSE,3.5,-,N/A,,Scattered Clouds,150,2013-10-06 22:34:00
6:55 PM,73.9,60.8,63,29.74,7.0,SE,4.6,-,N/A,,Scattered Clouds,130,2013-10-06 22:55:00
7:15 PM,73.4,60.4,64,29.74,10.0,SE,4.6,-,N/A,,Scattered Clouds,140,2013-10-06 23:15:00
7:35 PM,74.1,59.5,60,29.74,7.0,SE,4.6,-,N/A,,Scattered Clouds,140,2013-10-06 23:35:00
7:54 PM,73.8,59.2,60,29.74,10.0,SE,5.8,-,N/A,,Clear,130,2013-10-06 23:54:00
8:15 PM,74.1,58.6,58,29.74,10.0,SSE,3.5,-,N/A,,Scattered Clouds,150,2013-10-07 00:15:00
8:34 PM,74.3,58.5,58,29.76,7.0,South,9.2,-,N/A,,Mostly Cloudy,180,2013-10-07 00:34:00
8:55 PM,65.5,62.6,90,29.77,10.0,WSW,8.1,-,0.07,Rain,Rain,240,2013-10-07 00:55:00
9:15 PM,64.9,65.1,100,29.76,10.0,SW,4.6,-,N/A,,Overcast,230,2013-10-07 01:15:00
9:34 PM,64.6,64.8,100,29.76,10.0,SW,4.6,-,N/A,,Overcast,230,2013-10-07 01:34:00
9:54 PM,64.8,64.9,100,29.76,7.0,WSW,5.8,-,N/A,,Overcast,240,2013-10-07 01:54:00
10:15 PM,65.3,65.3,100,29.76,10.0,WSW,6.9,-,N/A,Rain,Light Rain,240,2013-10-07 02:15:00
10:34 PM,-9999,-9999,N/A,29.76,10.0,West,8.1,-,N/A,Rain,Light Rain,260,2013-10-07 02:34:00
10:55 PM,64.6,64.8,100,29.75,7.0,West,10.4,-,N/A,,Overcast,270,2013-10-07 02:55:00
11:15 PM,63.5,63.5,100,29.76,7.0,West,18.4,24.2,N/A,,Overcast,280,2013-10-07 03:15:00
11:34 PM,58.3,56.1,93,29.79,10.0,West,19.6,24.2,N/A,Rain,Light Rain,280,2013-10-07 03:34:00
11:55 PM,56.3,55.0,96,29.79,10.0,West,13.8,18.4,N/A,Rain,Rain,260,2013-10-07 03:55:00